Location: Unspecified
(0.0000°N, 0.0000°E)
Time: 01:27:43
(UTC+00:00)

Vanguard 1 Rocket - Pass Details

Date: 20 November 2019
Orbit: 650 x 4226 km, 34.3° (Epoch: 10 December)

Event Time Altitude Azimuth Distance (km) Brightness Sun altitude
Rises 00:23:52 0° 252° (WSW) 5,608 - -68.3°
Reaches altitude 10° 00:29:00 10° 263° (W) 3,949 - -67.7°
Maximum altitude 00:36:21 26° 315° (NW) 2,078 - -66.8°
Drops below altitude 10° 00:41:09 10° 12° (NNE) 2,486 - -66.1°
Sets 00:43:36 0° 26° (NNE) 3,201 - -65.8°
